Cloud_Cover
59 5 96 82 100 100 100 100 100 100 100 100 100 100 100 100 100 100 100 100 100 100 100 100 100 100 98 100 100 100 100 100 100 100 100 100 100 100 100 53 5 4 5 18
50 100 88 49 100 100 100 100 100 100 100 100 100 99 98 100 100 100 100 100 82 9 88 100 100 100 100 100 100 100 100 100 100 100 100 99 96 100 100 95 100 99 97 34
75 57 100 44 72 100 100 100 100 100 100 49 41 85 100 100 100 100 100 99 85 100 100 96 100 100 100 100 100 100 100 100 99 69 100 100 83 99 100 100 76 18 9 15
84 32 97 34 78 100 100 100 100 97 100 57 5 67 100 100 100 100 100 99 100 96 100 95 41 100 100 100 100 100 100 100 100 100 100 98 77 65 54 14 64 5 97 6
93 40 64 87 100 100 100 100 93 72 5 92 100 97 100 100 100 100 100 100 100 100 71 25 94 99 100 100 100 100 100 100 100 100 100 100 100 100 36 5 54 43 99 99
81 7 76 100 100 100 100 100 88 83 90 100 100 84 29 99 100 100 100 100 100 100 100 100 100 100 100 100 100 100 100 100 100 100 100 100 100 93 38 15 99 100 10 98
5 0 12 100 100 100 100 99 84 81 100 82 85 58 19 54 99 100 100 100 100 100 100 100 100 100 100 100 100 100 100 100 100 100 100 100 13 38 5 5 5 78 59 100
5 3 82 100 100 100 100 100 100 100 100 88 97 7 64 64 100 100 100 100 100 100 100 100 100 100 100 100 100 100 100 100 100 100 100 98 7 49 96 93 40 45 6 33
65 33 74 100 100 100 100 100 100 98 97 100 100 98 50 100 100 100 100 100 100 100 100 100 100 100 100 100 100 100 100 100 100 100 100 100 6 99 100 100 11 49 18 88
51 100 100 100 100 100 100 100 100 100 100 100 67 61 79 92 80 97 100 100 100 100 100 100 100 100 99 95 100 100 100 100 100 100 100 96 44 28 98 83 42 88 89 85
21 100 91 88 100 100 100 100 100 100 100 100 100 30 54 89 90 98 100 100 100 100 100 100 100 100 100 100 100 100 100 100 100 100 100 97 89 95 37 67 93 97 100 88
7 98 93 93 81 100 100 100 100 100 100 100 100 100 65 60 88 82 100 100 100 100 100 100 100 100 100 100 100 100 100 100 100 100 100 100 99 99 100 97 100 96 7 98
100 100 100 91 100 100 100 100 96 88 100 95 90 54 5 5 6 100 100 90 100 100 100 100 100 100 100 100 100 100 100 100 100 100 100 100 100 99 100 100 94 100 100 100
99 100 100 100 100 100 100 100 100 100 94 70 12 55 43 1 4 43 100 100 100 100 100 100 100 100 100 100 100 100 100 100 100 100 100 100 94 100 100 100 100 100 100 100
100 100 100 100 100 100 100 98 97 100 100 88 80 79 23 3 15 54 100 100 100 100 100 100 100 100 100 100 100 100 100 100 100 100 100 100 100 100 100 100 100 100 100 100
100 100 100 100 100 100 100 100 100 100 100 100 100 8 98 78 100 100 100 100 100 100 100 100 100 100 100 100 100 100 100 100 100 100 100 100 100 100 100 100 100 100 100 100
96 97 93 83 100 100 100 100 100 100 100 100 100 99 98 100 100 100 100 100 100 100 100 100 100 100 100 100 100 100 100 100 100 100 100 100 100 100 100 100 100 100 100 100
100 100 100 100 100 100 98 100 100 100 100 100 100 93 100 100 100 100 100 100 100 100 100 100 100 100 100 100 100 100 100 100 100 100 100 100 100 100 100 100 100 100 100 100
100 100 100 100 100 100 100 100 100 100 100 100 100 100 100 100 100 100 100 100 100 100 100 100 100 100 100 100 100 100 100 100 100 100 100 100 100 100 100 100 100 100 100 100
100 100 100 100 96 100 100 100 100 100 100 100 100 100 100 100 100 100 100 100 100 100 100 100 100 100 100 100 100 100 100 100 100 100 100 100 100 100 100 100 100 100 100 100
99 100 100 100 100 100 100 100 100 100 100 100 100 100 100 100 100 100 100 100 100 100 100 100 100 100 100 100 100 100 100 100 100 100 100 100 100 100 100 100 100 100 100 100
95 100 100 100 100 100 100 98 98 100 100 100 100 100 100 100 100 100 100 100 100 100 100 100 100 100 100 100 100 100 100 100 100 100 100 100 100 100 100 100 100 100 100 100
48 93 100 100 100 100 100 100 100 100 100 100 100 100 100 100 100 100 100 100 100 100 100 100 100 100 100 100 100 100 100 100 100 100 100 100 100 100 100 100 100 100 100 100
4 9 87 90 100 100 100 100 100 100 100 100 100 100 100 100 100 100 100 100 100 100 100 100 100 100 100 100 100 100 100 100 100 100 100 100 100 100 100 100 100 100 100 100
1 4 41 51 96 100 89 100 100 100 100 100 100 100 100 100 100 100 100 100 100 100 100 100 100 100 100 100 100 100 100 100 100 100 100 100 100 100 100 100 100 100 100 100
5 5 35 18 43 100 99 90 100 100 100 100 100 100 100 100 100 100 100 100 100 100 100 100 100 100 100 100 100 100 100 100 100 100 100 100 100 100 100 100 100 100 86 63
7 72 51 80 78 12 99 99 33 7 66 84 88 100 100 100 100 100 100 100 100 100 100 100 100 100 100 100 100 100 100 100 100 100 100 100 100 100 100 100 100 100 100 100